James Ospina

Chefscout - Real Cartagena
8 Okt 2026
Donnerstag
Verarbeitung

Persönlichkeit

Anpassungsfähigkeit (14) Ehrgeiz (8) Kontroverse (4) Loyalität (3) Druck (2) Professionalität (4) Fairness (6) Temperament (18)

Profil

Trainerstil Demokratisch
Lizenz Nationale B
Entschlossenheit 7
Menschenführung 6
Motivation 7
Disziplin 9
Arbeitszufriedenheit
50%
Ermüdung
0%
Rolle Chefscout
Gehalt 53.0K p/W
Vertrag 14.03.2030

Leistung

Verhalten Normal
Trainingseffektivität
19%
Spielerentwicklung
15%
Verletzungsprävention
35%
Taktische Umsetzung
30%

Letzte Ereignisse

Spieler begutachtet jetzt
Spieler begutachtet 7T her
Spieler begutachtet 7T her
Spieler begutachtet 7T her
Spieler begutachtet 7T her
Spieler begutachtet 14T her
Spieler begutachtet 14T her
Spieler begutachtet 14T her

Aktuell beobachtet

114
Spieler Verein Status Fähigkeit Vertrauen Beobachtet Zuletzt beobachtet Letzte Stimme
Brayan Gil Baltika Aktiv 133 / 132 40% 1 07.10.2026 -
Gonzalo Zelarayán Belgrano Aktiv 122 / 115 40% 1 07.10.2026 -
Marcelo Torres Gimnasia La Plata Aktiv 113 / 113 40% 1 07.10.2026 -
Diego Porcel Argentinos Juniors Aktiv 119 / 132 40% 1 06.10.2026 -
Tomás Fernández Aldosivi Aktiv 125 / 111 40% 1 06.10.2026 -
Chofis Besiktas Aktiv 132 / 143 40% 1 06.10.2026 -
Maximiliano Rodríguez Huachipato Aktiv 110 / 112 40% 2 05.10.2026 -
Brian Montenegro Defensor Sporting Aktiv 112 / 122 40% 2 05.10.2026 -
Alan Pulido Guadalajara Aktiv 116 / 124 40% 1 05.10.2026 -
Federico Bonansea San Martín SJ Aktiv 104 / 110 40% 2 03.10.2026 -
Matías Tagliamonte Racing Club Aktiv 118 / 112 40% 2 03.10.2026 -
Lautaro Bursich Talleres Aktiv 89 / 109 40% 1 03.10.2026 -
Egoitz Arana Real Sociedad Aktiv 107 / 100 40% 2 02.10.2026 -
Tomás Durso Atlético Tucumán Aktiv 128 / 111 40% 2 02.10.2026 -
Aldo Pérez Guarani Aktiv 114 / 101 40% 1 02.10.2026 -
Ander Astralaga Barcelona Aktiv 109 / 147 40% 2 30.09.2026 -
Sebastián Lentinelly Olimpia Aktiv 114 / 112 40% 2 30.09.2026 -
Laureano Martínez Talleres Aktiv 97 / 104 40% 1 30.09.2026 -
Federico Varese Racing Aktiv 110 / 121 40% 1 28.09.2026 -
Marcelo Miño Ferro Carril Oeste Aktiv 108 / 118 40% 1 28.09.2026 -
Beycker Velásquez Zamora Aktiv 95 / 104 40% 2 27.09.2026 -
Facundo Vila Estudiantes Aktiv 106 / 101 40% 1 27.09.2026 -
Joaquín Molina Banfield Aktiv 110 / 116 40% 2 26.09.2026 -
Santiago Roggero Gimnasia y Esgrima Aktiv 108 / 110 40% 1 26.09.2026 -
Gonzalo Falcón Cienciano Aktiv 110 / 117 40% 3 25.09.2026 -
Mateo Clemente San Lorenzo Aktiv 108 / 114 40% 1 25.09.2026 -
Nicolás Contín MFK Ruzomberok Aktiv 109 / 106 40% 2 24.09.2026 -
Juan Pablo Noce All Boys Aktiv 102 / 113 40% 1 24.09.2026 -
Joaquín Silva Plaza Colonia Aktiv 114 / 108 40% 1 24.09.2026 -
Francisco Casanova Cerrito Aktiv 103 / 109 40% 1 24.09.2026 -
Ramiro Ruiz Rodríguez Atlético Tucumán Aktiv 120 / 129 40% 1 24.09.2026 -
Marcelo Flores Tigres Aktiv 107 / 129 40% 1 24.09.2026 -
Lucas Verza Olimpia Aktiv 106 / 108 40% 2 22.09.2026 -
Sebastián Meza Huracán Aktiv 134 / 120 40% 2 22.09.2026 -
Enzo Vázquez Central Norte Aktiv 108 / 104 40% 1 22.09.2026 -
Emiliano González Almagro Aktiv 119 / 104 40% 1 21.09.2026 -
Agustín Buffa Wanderers Aktiv 105 / 108 40% 1 21.09.2026 -
Lucas Bruera Carabobo Aktiv 125 / 113 40% 2 20.09.2026 -
Frankarlos Benítez Caracas Aktiv 89 / 94 40% 1 20.09.2026 -
Uriel Montes Veracruz Aktiv 111 / 89 40% 1 20.09.2026 -
Alexander Díaz Deportivo Riestra Aktiv 115 / 105 40% 1 20.09.2026 -
Esteban da Silva Racing Aktiv 111 / 119 40% 1 20.09.2026 -
Luciano Cosentino Wanderers Aktiv 128 / 119 40% 1 19.09.2026 -
Agustín Módica Gimnasia y Esgrima Aktiv 117 / 120 40% 1 19.09.2026 -
Agustín Venezia Iquique Aktiv 103 / 113 40% 1 19.09.2026 -
Nicolás Campisi Sportivo Luqueno Aktiv 111 / 109 40% 3 16.09.2026 -
Tomás Giménez Gimnasia y Esgrima Aktiv 99 / 103 40% 2 16.09.2026 -
Bautista Arricau NK Varazdin Aktiv 90 / 89 40% 1 16.09.2026 -
Michael Vadulli Audax Italiano Aktiv 110 / 116 40% 1 16.09.2026 -
Francisco Coirolo Atenas Aktiv 97 / 89 40% 1 16.09.2026 -
Mateo Raschia Unión de Santa Fe Aktiv 91 / 89 40% 3 15.09.2026 -
Cristopher Varela Deportivo La Guaira Aktiv 110 / 116 40% 2 15.09.2026 -
Fernando Hernández St. Louis CITY SC Aktiv 94 / 97 40% 1 15.09.2026 -
Diego Abella Chiapas Aktiv 90 / 116 40% 1 14.09.2026 -
Patricio Albornoz Atlético Tucumán Aktiv 87 / 103 40% 2 13.09.2026 -
Francisco Castillo Llaneros Aktiv 105 / 86 40% 3 13.09.2026 -
Antonio Martínez Cerro Porteno Aktiv 87 / 90 40% 1 13.09.2026 -
Juan Pablo Cisternas Antofagasta Aktiv 89 / 90 40% 3 12.09.2026 -
Jorge Cabezudo Melgar Aktiv 110 / 101 40% 2 12.09.2026 -
Cristhian Riveros Dinamo Batumi Aktiv 82 / 90 40% 2 12.09.2026 -
Ángel González Libertad Aktiv 112 / 97 40% 2 10.09.2026 -
Lucio Latorre Racing Club Aktiv 87 / 88 40% 1 10.09.2026 -
Pep Biel Charlotte Football Club Aktiv 138 / 138 40% 1 09.09.2026 -
Adolfo Muñoz Ruch Aktiv 125 / 103 40% 1 09.09.2026 -
Rubén Del Campo Morelia Aktiv 95 / 107 40% 1 09.09.2026 -
Víctor Cabezas Union Magdalena Aktiv 126 / 114 40% 1 09.09.2026 -
Lucas Beltrán Alanyaspor Aktiv 91 / 88 40% 1 09.09.2026 -
Tomás Ahumada Audax Italiano Aktiv 107 / 107 40% 1 08.09.2026 -
Marco Espíndola Obolon Aktiv 85 / 91 40% 1 08.09.2026 -
Nicolás Nocetti Defensores Aktiv 99 / 102 40% 1 08.09.2026 -
Matías Daniele Belgrano Aktiv 117 / 110 40% 2 06.09.2026 -
Bruno Simone Defensor Sporting Aktiv 90 / 88 40% 1 06.09.2026 -
Jorge Hernández Tijuana Aktiv 121 / 124 40% 5 05.09.2026 -
Jordan García Leon Aktiv 108 / 119 40% 1 05.09.2026 -
Angel De La Cruz Alianza Lima Aktiv 99 / 107 40% 3 04.09.2026 -
Martin Jedlička Banik Ostrava Aktiv 138 / 116 40% 1 04.09.2026 -
Marcos Aguirre Korona Aktiv 82 / 99 40% 1 04.09.2026 -
Junior Dávila Deportivo Municipal Aktiv 100 / 95 40% 1 03.09.2026 -
Jonathan Lima Debrecen Aktiv 103 / 82 40% 1 02.09.2026 -
Franco Carretero Deportivo Lara Aktiv 93 / 100 40% 1 01.09.2026 -
Ignacio Colombo Sandefjord Aktiv 81 / 85 40% 1 30.08.2026 -
Manuel Rios La Equidad Aktiv 103 / 110 40% 1 29.08.2026 -
Julian Zapata Cortulua Aktiv 115 / 111 40% 1 29.08.2026 -
José Sanhueza Universidad de Concepcion Aktiv 85 / 79 40% 1 28.08.2026 -
Johan Portilla Deportivo Tachira Aktiv 102 / 87 40% 1 28.08.2026 -
Juan Pablo Vásquez Novi Pazar Aktiv 97 / 108 40% 1 28.08.2026 -
Santiago Torres San Lorenzo Aktiv 100 / 117 40% 2 27.08.2026 -
Andrés Fernández Aris Aktiv 84 / 95 40% 1 27.08.2026 -
Juan Moreno Pachuca Aktiv 100 / 98 40% 2 26.08.2026 -
Alejo Sánchez Roa Aalesund Aktiv 92 / 83 40% 1 26.08.2026 -
José Castro Tijuana Aktiv 89 / 73 40% 1 23.08.2026 -
Matías Dufour Sportivo Trinidense Aktiv 107 / 98 40% 1 23.08.2026 -
Giacomo Gambetta Ayacucho Aktiv 102 / 82 40% 1 21.08.2026 -
Toni Fuidias Girona Aktiv 116 / 87 40% 1 21.08.2026 -
Renato Solís Sporting Cristal Aktiv 115 / 108 40% 3 20.08.2026 -
Lautaro Porres KR Aktiv 86 / 88 40% 1 17.08.2026 -
Sebastián Mella Huachipato Aktiv 86 / 102 40% 1 17.08.2026 -
Luiz Artigas Aktiv 86 / 85 40% 2 16.08.2026 -
Felipe Parra Envigado Aktiv 126 / 130 40% 1 16.08.2026 -
Emi Ochoa Cruz Azul Aktiv 97 / 127 40% 1 15.08.2026 -
Pablo Lara Pumas UNAM Aktiv 108 / 111 40% 3 14.08.2026 -
Gian Piaggio Colón Aktiv 93 / 103 40% 1 13.08.2026 -
Fabricio Díaz San Lorenzo Aktiv 91 / 90 40% 1 12.08.2026 -
Alejandro Rodríguez Deportivo Cali Aktiv 129 / 133 40% 1 11.08.2026 -
Stefano Condino All Boys Aktiv 79 / 74 40% 1 10.08.2026 -
Hugo Gaona Sportivo Luqueno Aktiv 81 / 94 40% 1 10.08.2026 -
Nahuel González Alvarado Aktiv 97 / 105 40% 1 09.08.2026 -
Gustavo Dionisi Guarani Aktiv 90 / 84 40% 1 07.08.2026 -
Miguel Sansores Ararat-Armenia Aktiv 88 / 95 40% 1 05.08.2026 -
Italo Regalado Cesar Vallejo Aktiv 113 / 120 40% 1 05.08.2026 -
Camilo Salamanca Boca Juniors Aktiv 96 / 88 40% 1 05.08.2026 -
Santiago Garro Almirante Brown Aktiv 91 / 94 40% 1 03.08.2026 -
Juan Romero Olimpia Aktiv 105 / 100 40% 1 03.08.2026 -
Genaro Rossi San Martín SJ Aktiv 111 / 119 40% 1 03.08.2026 -